Regional Weather Roundup
Issued by NWS

Home | Current Version | Previous Version | Text Only | Print | Product List | Glossary Off
Versions: 1 2 3 4 5 6 7 8 9 10 11 12 13 14 15 16 17 18 19 20 21 22 23 24 25 26 27 28 29 30 31 32 33 34 35 36 37 38 39 40 41 42 43 44 45 46 47 48 49 50

000
ASUS43 KIND 210409
RWRIN

WEATHER ROUNDUP FOR INDIANA
NATIONAL WEATHER SERVICE INDIANAPOLIS IN
1200 AM EDT SAT APR 21 2018

NOTE: "FAIR" INDICATES FEW OR NO CLOUDS BELOW 12,000 FEET WITH NO
SIGNIFICANT WEATHER AND/OR OBSTRUCTIONS TO VISIBILITY.

* - STATION DOES NOT REPORT WEATHER SUCH AS PRECIPITATION OR FOG.

+ - STATION NOT QUALITY CONTROLLED BY THE NATIONAL WEATHER SERVICE.
    USE DATA WITH CAUTION...ESPECIALLY DEWPOINT AND RELATIVE
    HUMIDITY OBSERVATIONS.

INZ001>003-010>013-019-020-210500-
NORTHWEST INDIANA

CITY           SKY/WX    TMP DP  RH WIND       PRES   REMARKS
GARY /AIRPORT/ FAIR      36  28  71 CALM      30.45S
KNOX *+        FAIR      37  21  52 NE3       30.44F
LA PORTE +     FAIR      39  15  37 CALM      30.45S
MICHIGAN CITY+ FAIR      34  23  64 CALM      30.46S
MONTICELLO +   FAIR      45  20  38 NE7       30.43S
RENSSELAER +   FAIR      41  14  33 NE6       30.44S
VALPARAISO     FAIR      39  16  39 NE6       30.44F WCI  35

$$

LMZ046-743>745-210500-
SOUTHERN LAKE MICHIGAN

STATION/POSITION TIME  TEMP    WIND        PRES    WAVE
                       AIR SEA DIR/SP/G            HT
                 (UTC) (F)     (DEG/KT/KT) (MB)    (FT)
BURNS HARBOR     0340   44      80/  7/  8 1031.2S
MICHIGAN CITY    0340   43      70/  5/  6   N/A

$$

INZ004-005-014>016-021>024-210500-
NORTH CENTRAL INDIANA

CITY           SKY/WX    TMP DP  RH WIND       PRES   REMARKS
GOSHEN         FAIR      41  25  53 N3        30.44S
LOGANSPORT +   FAIR      41  28  60 N5        30.44R
PERU/GRISSOM   FAIR     N/A N/A N/A CALM        N/A
ROCHESTER +    FAIR      45  25  45 N3        30.44S
SOUTH BEND     FAIR      39  15  37 N3        30.45S
WARSAW +       FAIR      41  28  60 CALM      30.44S

$$

INZ006>009-017-018-025>027-210500-
NORTHEAST INDIANA

CITY           SKY/WX    TMP DP  RH WIND       PRES   REMARKS
ANGOLA *+      FAIR      37  32  81 CALM      30.42S
AUBURN +       FAIR      37  28  70 CALM      30.43S
FORT WAYNE     FAIR      40  30  67 CALM      30.43S
HUNTINGTON +   FAIR      39  29  65 CALM      30.43R

$$

INZ028-029-035-036-043>045-051>053-210500-
WEST CENTRAL INDIANA

CITY           SKY/WX    TMP DP  RH WIND       PRES   REMARKS
CRAWFORDSVL +  FAIR      42  26  52 E3        30.41S
GREENCASTLE +  FAIR      43  27  52 CALM      30.41S
LAFAYETTE      FAIR      45  25  45 N9        30.42R
TERRE HAUTE    FAIR      42  30  62 NE5       30.40S

$$

INZ030>032-037>040-046>048-054>057-064-065-210500-
CENTRAL INDIANA

CITY           SKY/WX    TMP DP  RH WIND       PRES   REMARKS
FISHERS *+     FAIR      41  30  65 CALM      30.42
FRANKFORT +    FAIR      45  28  52 CALM      30.44S
GREENWOOD *+   FAIR      46  25  44 E5        30.42S
INDIANAPOLIS   FAIR      48  24  39 NE6       30.41S
-EAGLE CREEK   FAIR      45  28  51 CALM      30.41S
KOKOMO +       FAIR      39  32  76 CALM      30.43S
MARION +       FAIR      42  28  57 CALM      30.43S
MT COMFORT *+  FAIR      41  32  70 E3        30.42S
SHELBYVILLE    FAIR      44  27  51 NE6       30.40S
ZIONSVILLE +   FAIR      38  32  79 CALM      30.42S

$$

INZ033-034-041-042-049-050-058-059-210500-
EAST CENTRAL INDIANA

CITY           SKY/WX    TMP DP  RH WIND       PRES   REMARKS
MUNCIE         FAIR      44  26  49 CALM      30.42S
RICHMOND +     FAIR      37  30  75 NE8       30.41F WCI  31

$$

INZ060-061-067>069-081>083-085>088-210500-
SOUTHWEST INDIANA

CITY           SKY/WX    TMP DP  RH WIND       PRES   REMARKS
EVANSVILLE     FAIR      50  31  48 NE9       30.37R
HUNTINGBURG +  FAIR      50  29  44 NE8       30.38R
WASHINGTON +   FAIR      46  29  51 CALM      30.38S

$$

INZ062-063-066-070>080-084-089>092-210500-
SOUTH CENTRAL AND SOUTHEAST INDIANA

CITY           SKY/WX    TMP DP  RH WIND       PRES   REMARKS
BATESVILLE +   PTCLDY    43  25  49 MISG      30.40F
BEDFORD +      FAIR      50  19  29 NE6       30.39R
BLOOMINGTON    FAIR      39  29  67 CALM      30.40R
FRENCH LICK *+ FAIR      50  18  27 NE5       30.38S
MADISON *+     FAIR      46  27  46 NE6       30.41S
NORTH VERNON + FAIR      43  28  56 NE6       30.41R
SEYMOUR +      FAIR      45  28  53 NE7       30.40R

$$





USA.gov is the U.S. government's official web portal to all federal, state and local government web resources and services.